Location: *
(43.0833°N, 13.0500°E)
Time: 18:06:22
(UTC+00:00)

NOAA 15 - Pass Details

Date: 15 November 2019
Orbit: 797 x 813 km, 98.7° (Epoch: 13 December)

Event Time Altitude Azimuth Distance (km) Brightness Sun altitude
Rises 17:20:42 0° 158° (SSE) 3,321 7.7 -17.6°
Reaches altitude 10° 17:23:02 10° 157° (SSE) 2,392 6.9 -18.0°
Maximum altitude 17:28:18 73° 73° (ENE) 850 4.5 -19.0°
Drops below altitude 10° 17:33:36 10° 350° (N) 2,399 7.1 -19.9°
Sets 17:35:56 0° 349° (NNW) 3,332 7.9 -20.4°
